CST,Max TemperatureF,Mean TemperatureF,Min TemperatureF,Max Dew PointF,MeanDew PointF,Min DewpointF,Max Humidity, Mean Humidity, Min Humidity, Max Sea Level PressureIn, Mean Sea Level PressureIn, Min Sea Level PressureIn, Max VisibilityMiles, Mean VisibilityMiles, Min VisibilityMiles, Max Wind SpeedMPH, Mean Wind SpeedMPH, Max Gust SpeedMPH,PrecipitationIn, CloudCover, Events, WindDirDegrees
2012-2-1,53,39,25,24,19,15,76,51,22,30.12,30.07,30.04,10,10,10,8,5,,0.00,0,,283
2012-2-2,52,35,18,24,18,13,87,56,25,30.15,30.12,30.10,10,10,7,14,4,17,0.00,0,,165
2012-2-3,32,30,29,32,28,23,100,89,78,30.32,30.26,30.17,10,7,0,16,8,18,0.02,7,Snow,351
2012-2-4,32,29,25,28,27,24,100,96,80,30.43,30.38,30.33,10,5,0,17,12,,0.03,6,Fog,339
2012-2-5,40,28,15,30,21,14,96,86,66,30.39,30.34,30.26,10,10,10,8,6,,0.05,0,,253
2012-2-6,44,32,19,30,21,14,85,70,48,30.19,30.13,30.07,10,10,10,21,8,28,0.00,0,,264
2012-2-7,26,22,17,25,19,14,99,92,78,30.50,30.43,30.32,10,8,0,26,18,32,0.00,8,Snow,356
2012-2-8,24,15,6,20,12,4,94,89,79,30.45,30.33,30.21,10,9,4,15,6,17,0.00,5,Snow,211
2012-2-9,48,30,12,25,17,10,93,70,36,30.17,30.04,29.94,10,10,10,24,9,30,0.00,0,,266
2012-2-10,24,16,8,18,5,-5,83,63,41,30.44,30.30,30.17,10,10,10,25,20,32,0.00,3,Snow,353
2012-2-11,19,6,-6,-3,-8,-12,77,59,32,30.63,30.58,30.49,10,10,10,14,6,,0.00,0,,246
2012-2-12,29,16,4,18,6,-4,77,66,52,30.40,30.15,29.89,10,10,10,25,13,31,0.00,1,,185
2012-2-13,43,32,21,21,18,14,83,67,38,29.78,29.68,29.62,10,10,10,15,9,18,0.00,3,,258
2012-2-14,52,38,25,27,22,14,83,56,21,29.71,29.69,29.66,10,10,10,17,9,21,0.00,3,,258
2012-2-15,41,36,30,32,24,16,94,64,38,30.04,29.90,29.72,10,10,10,25,13,33,0.02,2,,317
2012-2-16,49,34,18,23,17,14,85,59,25,30.18,30.13,30.02,10,10,10,16,8,24,0.00,0,,247
2012-2-17,39,28,17,23,17,13,85,65,40,30.17,30.08,29.98,10,10,10,15,7,23,0.00,2,,318
2012-2-18,43,28,14,27,20,11,87,70,49,30.19,30.09,29.96,10,10,10,18,9,24,0.00,0,,194
2012-2-19,38,32,25,33,27,20,89,80,73,29.94,29.82,29.76,10,10,7,23,16,26,0.00,3,,188
2012-2-20,37,34,32,36,33,32,100,97,82,29.71,29.62,29.58,10,3,0,26,12,32,0.29,8,Snow,43
2012-2-21,37,29,21,28,21,16,81,74,68,29.81,29.75,29.62,10,10,10,15,9,,0.02,2,,256
2012-2-22,43,36,28,36,32,24,87,78,71,29.57,29.51,29.35,10,10,10,13,9,,0.00,3,,261
2012-2-23,39,34,29,36,28,20,99,78,55,29.87,29.55,29.28,10,10,2,38,19,54,0.00,6,Snow,312
2012-2-24,37,29,21,24,21,17,89,77,49,30.22,30.06,29.91,10,10,5,28,12,32,0.00,3,Snow,304
2012-2-25,43,30,17,26,21,15,93,74,46,30.20,29.96,29.62,10,10,10,33,11,40,0.00,1,,161
2012-2-26,40,34,28,25,21,13,86,53,33,30.08,29.77,29.51,10,10,10,36,20,52,0.00,3,,298
2012-2-27,40,24,9,17,11,6,86,62,34,30.38,30.28,30.10,10,10,10,23,9,29,0.00,0,,198
2012-2-28,38,34,27,35,28,20,100,80,47,30.02,29.70,29.36,10,6,0,24,17,34,0.18,8,Fog-Rain-Snow-Thunderstorm,133
2012-2-29,35,28,20,26,22,18,94,80,63,29.80,29.67,29.45,10,6,0,29,22,39,0.01,4,Snow,290